Belmar, NJ

7:02 PM EST on February 23, 2017 (GMT -0500)
Allaire

Weather History for KBLM - November, 2010

Change the Weather History Date:

Tuesday, November 9, 2010

  Actual Average Record
Temperature  
Mean Temperature 46 °F -  
Max Temperature 55 °F 52 °F 68 °F (2006)
Min Temperature 37 °F 37 °F 26 °F (2003)
Degree Days  
Heating Degree Days 19    
Moisture  
Dew Point 33 °F    
Average Humidity 58    
Maximum Humidity 70    
Minimum Humidity 47    
Precipitation  
Precipitation 0.00 in - - ()
Sea Level Pressure  
Sea Level Pressure 29.87 in    
Wind  
Wind Speed 14 mph (NNW)    
Max Wind Speed 20 mph    
Max Gust Speed 28 mph    
Visibility 10 miles    
Events      
Averages and records for this station are not official NWS values.
T = Trace of Precipitation, MM = Missing Value Source: NWS Daily Summary

Daily Weather History Graph

Daily Weather History Graph

Search for Another Location

Airport or City:

Trip Planner

Search our weather history database for the weather conditions in past years. The results will help you decide how hot, cold, wet, or windy it might be!

Date:

Astronomy

Nov. 09, 2010 Rise Set
Actual Time 6:35 AM EST 4:45 PM EST
Civil Twilight 6:06 AM EST 5:13 PM EST
Nautical Twilight 5:33 AM EST 5:46 PM EST
Astronomical Twilight 5:01 AM EST 6:18 PM EST
Moon 10:13 AM EST (11/9) 7:40 PM EST (11/9)
Length of Visible Light 11h 07m
Length of Day
10h 10m
Waxing Crescent, 14% of the Moon is Illuminated
Nov 9
Waxing Crescent
Nov 13
First Quarter
Nov 21
Full
Nov 28
Last Quarter
Dec 5
New

Hourly Weather History & Observations

Time (EST) Temp. Windchill Dew Point Humidity Pressure Visibility Wind Dir Wind Speed Gust Speed Precip Events Conditions
12:15 AM 39.2 °F 31.2 °F 26.6 °F 61% 29.76 in 10.0 mi NNW 13.8 mph - N/A   Clear
12:35 AM 39.2 °F 31.2 °F 26.6 °F 61% 29.76 in 10.0 mi NNW 13.8 mph - N/A   Clear
12:55 AM 39.2 °F 31.2 °F 26.6 °F 61% 29.76 in 10.0 mi NW 13.8 mph - N/A   Clear
1:15 AM 37.4 °F 28.9 °F 26.6 °F 65% 29.77 in 10.0 mi NW 13.8 mph - N/A   Clear
1:55 AM 37.4 °F 28.9 °F 26.6 °F 65% 29.78 in 10.0 mi NW 13.8 mph - N/A   Clear
2:15 AM 39.2 °F 31.2 °F 28.4 °F 65% 29.79 in 10.0 mi NW 13.8 mph - N/A   Clear
2:35 AM 37.4 °F 29.8 °F 28.4 °F 70% 29.79 in 10.0 mi NNW 11.5 mph - N/A   Clear
3:15 AM 37.4 °F 29.8 °F 28.4 °F 70% 29.79 in 10.0 mi NW 11.5 mph - N/A   Clear
3:35 AM 37.4 °F 29.8 °F 28.4 °F 70% 29.80 in 10.0 mi NW 11.5 mph - N/A   Clear
3:55 AM 37.4 °F 29.8 °F 28.4 °F 70% 29.80 in 10.0 mi NW 11.5 mph - N/A   Clear
4:15 AM 39.2 °F 32.0 °F 28.4 °F 65% 29.81 in 10.0 mi NW 11.5 mph - N/A   Clear
4:35 AM 37.4 °F 29.8 °F 28.4 °F 70% 29.82 in 10.0 mi NW 11.5 mph - N/A   Clear
5:15 AM 37.4 °F 29.8 °F 28.4 °F 70% 29.82 in 10.0 mi NW 11.5 mph - N/A   Clear
5:35 AM 39.2 °F 31.2 °F 28.4 °F 65% 29.83 in 10.0 mi NW 13.8 mph - N/A   Clear
5:55 AM 37.4 °F 28.5 °F 28.4 °F 70% 29.83 in 10.0 mi NW 15.0 mph - N/A   Clear
6:15 AM 37.4 °F 28.9 °F 28.4 °F 70% 29.83 in 10.0 mi NW 13.8 mph - N/A   Clear
6:35 AM 39.2 °F 31.6 °F 28.4 °F 65% 29.84 in 10.0 mi NNW 12.7 mph - N/A   Clear
7:15 AM 39.2 °F 31.6 °F 28.4 °F 65% 29.85 in 10.0 mi NNW 12.7 mph - N/A   Clear
7:35 AM 39.2 °F 32.0 °F 28.4 °F 65% 29.86 in 10.0 mi NW 11.5 mph - N/A   Clear
7:55 AM 41.0 °F 34.3 °F 30.2 °F 65% 29.87 in 10.0 mi NNW 11.5 mph - N/A   Clear
8:15 AM 42.8 °F 35.4 °F 30.2 °F 61% 29.87 in 10.0 mi NNW 15.0 mph 21.9 mph N/A   Clear
8:35 AM 44.6 °F 38.1 °F 32.0 °F 61% 29.87 in 10.0 mi NNW 13.8 mph 20.7 mph N/A   Clear
8:55 AM 44.6 °F 37.4 °F 30.2 °F 57% 29.88 in 10.0 mi NNW 16.1 mph 26.5 mph N/A   Clear
9:15 AM 46.4 °F 39.2 °F 32.0 °F 57% 29.89 in 10.0 mi North 18.4 mph 27.6 mph N/A   Clear
9:35 AM 46.4 °F 40.1 °F 32.0 °F 57% 29.89 in 10.0 mi NNW 15.0 mph 27.6 mph N/A   Clear
10:15 AM 48.2 °F - 33.8 °F 58% 29.90 in 10.0 mi NNW 18.4 mph 24.2 mph N/A   Clear
10:35 AM 50.0 °F - 33.8 °F 54% 29.90 in 10.0 mi North 15.0 mph 25.3 mph N/A   Clear
10:55 AM 50.0 °F - 33.8 °F 54% 29.90 in 10.0 mi NNW 19.6 mph 24.2 mph N/A   Clear
11:15 AM 51.8 °F - 33.8 °F 50% 29.90 in 10.0 mi NW 16.1 mph 19.6 mph N/A   Clear
11:35 AM 51.8 °F - 33.8 °F 50% 29.89 in 10.0 mi NNW 17.3 mph 23.0 mph N/A   Clear
11:55 AM 53.6 °F - 35.6 °F 51% 29.88 in 10.0 mi NNW 18.4 mph 21.9 mph N/A   Clear
12:15 PM 53.6 °F - 35.6 °F 51% 29.88 in 10.0 mi NNW 19.6 mph 23.0 mph N/A   Clear
12:35 PM 53.6 °F - 35.6 °F 51% 29.87 in 10.0 mi NNW 19.6 mph 26.5 mph N/A   Clear
12:55 PM 53.6 °F - 35.6 °F 51% 29.87 in 10.0 mi NNW 15.0 mph 24.2 mph N/A   Clear
1:15 PM 55.4 °F - 35.6 °F 47% 29.87 in 10.0 mi North 17.3 mph 23.0 mph N/A   Clear
1:35 PM 55.4 °F - 35.6 °F 47% 29.87 in 10.0 mi NW 16.1 mph 21.9 mph N/A   Clear
1:55 PM 55.4 °F - 35.6 °F 47% 29.87 in 10.0 mi North 17.3 mph 23.0 mph N/A   Clear
2:15 PM 55.4 °F - 35.6 °F 47% 29.87 in 10.0 mi North 18.4 mph 23.0 mph N/A   Clear
2:35 PM 55.4 °F - 35.6 °F 47% 29.87 in 10.0 mi NNW 16.1 mph 20.7 mph N/A   Clear
2:55 PM 55.4 °F - 35.6 °F 47% 29.87 in 10.0 mi North 13.8 mph 20.7 mph N/A   Clear
3:15 PM 55.4 °F - 35.6 °F 47% 29.88 in 10.0 mi North 18.4 mph 21.9 mph N/A   Clear
3:35 PM 55.4 °F - 35.6 °F 47% 29.88 in 10.0 mi North 15.0 mph 21.9 mph N/A   Clear
4:15 PM 53.6 °F - 35.6 °F 51% 29.89 in 10.0 mi North 13.8 mph - N/A   Clear
4:35 PM 53.6 °F - 35.6 °F 51% 29.90 in 10.0 mi North 9.2 mph - N/A   Clear
4:55 PM 51.8 °F - 35.6 °F 54% 29.90 in 10.0 mi North 9.2 mph - N/A   Clear
5:15 PM 51.8 °F - 35.6 °F 54% 29.91 in 10.0 mi North 10.4 mph - N/A   Scattered Clouds
5:35 PM 51.8 °F - 35.6 °F 54% 29.92 in 10.0 mi NNW 9.2 mph - N/A   Scattered Clouds
5:55 PM 51.8 °F - 35.6 °F 54% 29.92 in 10.0 mi North 10.4 mph - N/A   Overcast
6:15 PM 51.8 °F - 35.6 °F 54% 29.92 in 10.0 mi North 15.0 mph 25.3 mph N/A   Scattered Clouds
6:35 PM 51.8 °F - 35.6 °F 54% 29.93 in 10.0 mi North 15.0 mph 20.7 mph N/A   Mostly Cloudy
6:55 PM 51.8 °F - 35.6 °F 54% 29.93 in 10.0 mi North 12.7 mph - N/A   Overcast
7:15 PM 51.8 °F - 35.6 °F 54% 29.93 in 10.0 mi North 15.0 mph 19.6 mph N/A   Overcast
7:35 PM 51.8 °F - 37.4 °F 58% 29.93 in 10.0 mi North 12.7 mph 20.7 mph N/A   Overcast
7:55 PM 51.8 °F - 37.4 °F 58% 29.94 in 10.0 mi North 18.4 mph 24.2 mph N/A   Overcast
8:15 PM 51.8 °F - 37.4 °F 58% 29.94 in 10.0 mi North 13.8 mph 23.0 mph N/A   Overcast
8:35 PM 50.0 °F - 37.4 °F 62% 29.94 in 10.0 mi North 12.7 mph - N/A   Scattered Clouds
8:55 PM 50.0 °F - 37.4 °F 62% 29.94 in 10.0 mi NNW 11.5 mph - N/A   Mostly Cloudy
9:15 PM 48.2 °F - 35.6 °F 62% 29.95 in 10.0 mi NNW 11.5 mph - N/A   Overcast
9:35 PM 48.2 °F - 35.6 °F 62% 29.95 in 10.0 mi NW 12.7 mph - N/A   Overcast
9:55 PM 48.2 °F - 35.6 °F 62% 29.95 in 10.0 mi NW 10.4 mph - N/A   Overcast
10:15 PM 48.2 °F - 35.6 °F 62% 29.95 in 10.0 mi NW 10.4 mph - N/A   Overcast
10:35 PM 46.4 °F 41.5 °F 35.6 °F 66% 29.96 in 10.0 mi NNW 10.4 mph - N/A   Scattered Clouds
10:55 PM 46.4 °F 42.4 °F 35.6 °F 66% 29.96 in 10.0 mi NNW 8.1 mph - N/A   Mostly Cloudy
11:15 PM 48.2 °F - 35.6 °F 62% 29.96 in 10.0 mi NNW 9.2 mph 16.1 mph N/A   Overcast
11:35 PM 48.2 °F - 37.4 °F 66% 29.96 in 10.0 mi NNW 10.4 mph 16.1 mph N/A   Overcast
11:55 PM 48.2 °F - 37.4 °F 66% 29.97 in 10.0 mi NNW 15.0 mph 19.6 mph N/A   Overcast